www.pogodaiklimat.ru

Погода и климат >> Архив погоды >> Россия >> Камчатский край >> Козыревск


ПОГОДА в Козыревске

  • Прогноз погоды в Козыревске
  • Монитор погоды в Козыревске

АРХИВ ПОГОДЫ в Козыревске

Время (UTC), дата Ветер
(напр.,м/с)
 
Видим.   Явления Облачность Т
(С)
Тd
(С)
f
(%)
Тe
(С)
Тes
(С)
Комфортность P
(гПа)
Po
(гПа)
Тmin
(С)
Tmax
(С)
R
(мм)
R24
(мм)
S
(см)
12 15.01 ЮВ 1 ясно 70 1012.0
15 15.01 штиль 0 ясно 70 1013.3
18 15.01 штиль 0 ясно 69 1013.3
21 15.01 штиль 0
{2}
5 баллов 69 1014.7
00 16.01 штиль 0 9 баллов 74 1014.7
03 16.01 штиль 0 8 баллов 80 1013.3
06 16.01 штиль 0 50 км 2 балла -26.5 -29.6 75 -27 -27 1018.9 1013.3
09 16.01 штиль 0
{2}
ясно 71 1012.0
12 16.01 штиль 0 ясно 71 1012.0
15 16.01 СВ 1 ясно 73 1010.7
18 16.01 СВ 1 ясно 75 1008.0
21 16.01 С 4
{6}
50 км 10 баллов -21.3 -24.0 79 -31 -31 опасность
обморожения
1010.8 1005.3 -32.0
00 17.01 С 7
{15}
50 км 5 баллов -18.9 -21.6 79 -30 -30 1009.4 1004.0
03 17.01 С 7
{15}
50 км 10 баллов -17.3 -20.7 75 -28 -28 1005.4 1000.0
06 17.01 С 10
{21}
50 км позёмок 6 баллов -17.2 -20.3 77 -30 -30 1001.3 996.0
09 17.01 С 9
{21}
2000 м метель 6 баллов -17.1 -20.2 77 -29 -29 1000.0 994.7 -16.8
12 17.01 СВ 9
{20}
2000 м слаб. ливневой снег 9 баллов -16.9 -19.8 78 -29 -29 998.6 993.3
15 17.01 СВ 6
{18}
4000 м слаб. ливневой снег 10 баллов -14.8 -18.1 76 -24 -24 1001.3 996.0
18 17.01 С 1
{12}
10 км слаб. ливневой снег 10 баллов -16.5 -18.8 82 -19 -19 1002.6 997.3
21 17.01 Ю 1
{20}
50 км в посл. час ливневой снег 7 баллов -19.0 -21.1 83 -22 -22 1004.1 998.7 -19.0 4
00 18.01 Ю 2 50 км ясно -18.8 -21.1 82 -24 -23 1005.4 1000.0 -23.9
03 18.01 ЮЗ 2 ясно 73 997.3
06 18.01 штиль 0 50 км ясно -22.9 -25.2 81 -23 -23 1002.8 997.3
09 18.01 штиль 0
{4}
ясно 73 997.3
12 18.01 ЮВ 1 ясно 71 997.3
15 18.01 З 1 7 баллов 76 997.3
18 18.01 Ю 1 50 км 10 баллов -21.8 -24.4 79 -25 -25 1002.7 997.3
21 18.01 СЗ 3
{8}
50 км 10 баллов -14.9 -16.8 85 -21 -21 1001.3 996.0 -32.5
00 19.01 ЮЗ 2
{12}
слаб. ливневой снег н/о 81 996.0
03 19.01 Ю 1 ливневой снег н/о 83 992.0
06 19.01 Ю 2 4000 м ливневой снег 10 баллов -16.5 -18.6 84 -22 -22 997.3 992.0
09 19.01 Ю 1
{12}
4000 м слаб. ливневой снег 10 баллов -15.6 -17.5 85 -18 -18 996.0 990.7 -11.5 5
12 19.01 С 6
{14}
4000 м слаб. ливневой снег 10 баллов -4.2 -5.3 92 -12 -12 994.3 989.3
15 19.01 ЮВ 3
{13}
20 км 10 баллов -9.5 -10.8 90 -15 -15 994.4 989.3
18 19.01 С 7
{15}
10 км слаб. ливневой снег 9 баллов -1.4 -2.4 93 -9 -9 993.0 988.0
21 19.01 С 6
{15}
10 км позёмок 9 баллов -0.1 -0.9 94 -7 -7 992.9 988.0 -15.6 2
00 20.01 С 6
{14}
50 км позёмок 7 баллов +1.1 -2.8 75 -5 -5 992.9 988.0
03 20.01 С 7
{18}
50 км позёмок 7 баллов +0.8 -2.1 81 -6 -6 991.6 986.7
06 20.01 С 8
{18}
50 км позёмок 10 баллов 0.0 -1.6 89 -8 -8 991.6 986.7
09 20.01 С 6
{18}
4000 м ливневой снег 10 баллов -0.7 -1.3 96 -8 -8 990.2 985.3 +1.5 9
12 20.01 С 5
{18}
10 км слаб. ливневой снег 10 баллов -0.7 -2.3 89 -7 -7 991.7 986.7
15 20.01 СЗ 4
{11}
20 км 6 баллов -1.0 -2.7 88 -7 -7 994.3 989.3
18 20.01 СЗ 3 50 км 6 баллов -1.5 -4.5 80 -6 -6 998.3 993.3
21 20.01 ЮЗ 1
{18}
50 км 6 баллов -3.8 -5.9 85 -6 -6 999.8 994.7 -3.8 0.5
00 21.01 СЗ 3 50 км 7 баллов -0.1 -3.6 77 -5 -4 1002.3 997.3 -4.4
03 21.01 С 6
{13}
50 км 10 баллов +0.5 -4.7 68 -6 -6 1002.3 997.3
06 21.01 С 5
{14}
50 км 9 баллов -0.5 -2.1 89 -7 -7 1001.0 996.0
09 21.01 С 4
{14}
50 км 9 баллов +0.1 -2.0 86 -5 -5 1001.0 996.0 +1.9
12 21.01 С 4
{12}
20 км 10 баллов +0.1 -2.0 86 -5 -5 1001.0 996.0
15 21.01 С 5
{13}
20 км 10 баллов -0.1 -2.2 86 -6 -6 1002.3 997.3
18 21.01 С 6
{14}
50 км 10 баллов -0.3 -2.4 86 -7 -7 1002.3 997.3
21 21.01 С 5
{14}
50 км 6 баллов -0.8 -2.8 86 -7 -7 1005.0 1000.0 -0.8
00 22.01 С 6
{13}
50 км 6 баллов +0.1 -3.4 77 -6 -6 1006.3 1001.3 -0.9
03 22.01 С 8
{18}
50 км позёмок 5 баллов -0.6 -2.6 86 -8 -8 1007.7 1002.7
06 22.01 С 9
{18}
50 км позёмок 2 балла -1.2 -5.4 73 -9 -9 1007.7 1002.7

 

Местоположение метеостанции Козыревск (Камчатский край, Россия): широта 56.05 долгота 159.80 высота над уровнем моря 40 м.

В архиве по умолчанию представлена погода в Козыревске за последнюю неделю. Архивные данные за месяц целиком и за предыдущие месяцы, начиная с января 2011 года, Вы можете получить, выбрав интересующий диапазон дат из раскрывающегося списка и нажав кнопку "Ввод!".


*Определитесь, кто Вы:
робот инопланетянин человек

Внимание! Время в таблицах - всемирное. Для получения местного времени необходимо прибавить поправку, которая равна 12 ч.

Смотрите также архив погоды в соседних городах и на ближайших метеорологических станциях:

Погода в Ключах (Камчатский край, Россия) (69 км)
Погода в Эссо (Камчатский край, Россия) (70 км)
Погода в Долиновке (Камчатский край, Россия) (115 км)
Погода в Мильково (Камчатский край, Россия) (173 км)
Погода в Усть-Камчатске (Камчатский край, Россия) (181 км)
Погода в Тигиле (Камчатский край, Россия) (203 км)
Погода в Семячике (Камчатский край, Россия) (215 км)
Погода на Мысе Африка (Камчатский край, Россия) (217 км)
Погода в Усть-Хайрюзово (Камчатский край, Россия) (222 км)
Погода в Пущино (Камчатский край, Россия) (237 км)

Пояснения к столбцам:

Ветер - указаны скорость ветра в м/с - средняя за 10 мин, порывы в срок и между сроками (в фигурных скобках) и направление, откуда дует ветер: С - северный, СВ - северо-восточный, В - восточный, ЮВ - юго-восточный, Ю - южный, ЮЗ - юго-западный, З - западный, СЗ - северо-западный.
Видимость - горизонтальная дальность видимости в метрах или километрах. При видимости от 1 до 10 км при отсутствии осадков обычно наблюдается дымка, при ухудшении видимости до 1 км и менее - туман. В сухую погоду видимость может ухудшаться дымом, пылью или мглою.
Явления - указаны атмосферные явления, наблюдавшиеся в срок или в последний час перед сроком; фигурными скобками обозначены явления, наблюдавшиеся между сроками (за 1-3 часа до срока); квадратными скобками обозначены град или гололедные отложения с указанием их диаметра в мм.
Облачность - указаны через наклонную черту общая и нижняя облачность в баллах и высота нижней границы облаков в метрах; квадратными скобками обозначены формы облаков: Ci - перистые, Cs - перисто-слоистые, Cc - перисто-кучевые, Ac - высококучевые, As - высокослоистые, Sc - слоисто-кучевые, Ns - слоисто-дождевые, Cu - кучевые, Cb - кучево-дождевые. Подробнее классификацию облаков см. в Атласе облаков (PDF).
T - Температура воздуха - температура, измеренная на высоте 2 м над землей.
Td - Температура точки росы - температура, при понижении до которой содержащийся в воздухе водяной пар достигнет насыщения.
f - Относительная влажность воздуха - влажноcть воздуха, измеренная на высоте 2 м над землей.
Te - Эффективная температура - температура, которую ощущает одетый по сезону человек в тени. Характеристика душности погоды. При расчете учитывается влияние влажности воздуха и скорости ветра на теплоощущения человека.
Tes - Эффективная температура на солнце - температура, которую ощущает человек, с поправкой на солнечный нагрев. Характеристика знойности погоды. Зависит от высоты солнца над горизонтом, облачности и скорости ветра. Ночью, в пасмурную погоду, а также при ветре 12 м/с и более поправка равна нулю.
P - Атмосферное давление - приведенное к уровню моря атмосферное давление.
Po - Атмосферное давление - измеренное на уровне метеостанции атмосферное давление.
Tmin - Минимальная температура - минимум температуры воздуха на высоте 2 м над землей.
Tmax - Максимальная температура - максимум температуры воздуха на высоте 2 м над землей.
R - Количество осадков - Количество выпавших осадков за период времени, мм. При наведении курсора мыши на число - период времени, за который выпало указанное количество осадков.
R24 - Количество осадков - Количество выпавших осадков за 24 часа, мм.
S - Снежный покров - Высота снежного покрова, см. При наведении курсора мыши на число - состояние снежного покрова и степень покрытия местности в баллах.